Flag for India Weather past 2 weeks in Thiruvananthapuram, Kerala, India

Now
86 °F

Scattered clouds.


Feels Like: 97 °F
Forecast: 78 / 84 °F
Wind: 9 mph from West

Location: Thiruvananthapuram

Current Time: Sep 16, 2014 at 5:14:53 PM

Latest Report: Sep 16, 2014 at 4:10 PM


Visibility: 3 mi

Pressure: 29.71 "Hg

Humidity: 75%

Dew point: 77 °F

Location of ThiruvananthapuramLocation

Historic Weather in Thiruvananthapuram — Graph

°F

Thiruvananthapuram temperature yesterday

Maximum temperature yesterday: 88 °F (at 12:10 PM)
Minimum temperature yesterday: 79 °F (at 12:10 AM)
Average temperature yesterday: 83 °F

Past Weeks' High & Low Weather Summary

 TemperatureHumidityPressure
High90 °F (Sep 5, 3:40 PM)94% (Sep 1, 7:40 PM)29.89 "Hg (Sep 1, 7:40 PM)
Low75 °F (Sep 3, 7:40 PM)62% (Sep 13, 12:10 PM)29.68 "Hg (Sep 1, 3:40 PM)
Average82 °F80%29.82 "Hg
* Reported Sep 1 3:40 PM — Sep 16 4:10 PM, Thiruvananthapuram, Weather by CustomWeather, © 2014

Note: Actual official high and low records may vary slightly from our data, if they occured in-between our weather recording intervals... More about our weather records

Advertising

Thiruvananthapuram weather history for previous 24 hours

 ConditionsComfort  
Time TempWeatherWind HumidityBarometerVisibility
4:10 PM
Sep 16
86 °FScattered clouds.9 mph75%29.71 "Hg3 mi
3:40 PM86 °FScattered clouds.9 mph75%29.71 "Hg3 mi
2:40 PM88 °FScattered clouds.12 mph66%29.71 "Hg4 mi
2:10 PM88 °FScattered clouds.12 mph66%29.71 "Hg4 mi
1:40 PM88 °FScattered clouds.12 mph66%29.74 "Hg4 mi
1:10 PM86 °FScattered clouds.9 mph70%29.74 "Hg4 mi
12:40 PM84 °FScattered clouds.9 mph74%N/A4 mi
11:40 AM82 °FScattered clouds.9 mph79%29.80 "Hg4 mi
11:10 AM84 °FScattered clouds.9 mph74%29.80 "Hg4 mi
10:10 AM84 °FScattered clouds.9 mph74%29.83 "Hg4 mi
9:10 AM82 °FScattered clouds.6 mph79%29.83 "Hg3 mi
8:10 AM81 °FScattered clouds.3 mph79%29.80 "Hg2 mi
7:40 AM79 °FWarm.1 mph84%29.80 "HgN/A
6:10 AM79 °FPassing clouds.3 mph84%29.77 "Hg2 mi
5:40 AM79 °FPassing clouds.3 mph89%29.74 "Hg2 mi
4:40 AM79 °FPassing clouds.5 mph89%29.74 "Hg2 mi
3:40 AM79 °FPassing clouds.3 mph89%29.74 "Hg2 mi
2:10 AM79 °FPassing clouds.3 mph89%29.74 "Hg2 mi
1:10 AM79 °FPassing clouds.3 mph89%29.77 "Hg2 mi
12:10 AM81 °FPassing clouds.3 mph84%29.80 "Hg2 mi
11:10 PM
Sep 15
81 °FPassing clouds.5 mph84%29.80 "Hg2 mi
10:40 PM81 °FPassing clouds.5 mph84%29.83 "Hg2 mi
10:10 PM81 °FPassing clouds.6 mph84%29.83 "Hg2 mi
9:40 PM81 °FPassing clouds.7 mph84%29.83 "Hg2 mi
8:40 PM82 °FPassing clouds.6 mph79%29.80 "Hg2 mi
6:10 PM82 °FHaze.7 mph84%29.77 "Hg3 mi
5:40 PM86 °FPassing clouds.9 mph75%29.74 "Hg4 mi
5:10 PM86 °FPassing clouds.8 mph75%29.74 "Hg4 mi
Weather by CustomWeather, © 2014

See weather overviewHow to use our weather pages